Regional Weather Roundup
Issued by NWS

Home | Current Version | Previous Version | Graphics & Text | Print | Product List | Glossary On
Versions: 1 2 3 4 5 6 7 8 9 10 11 12 13 14 15 16 17 18 19 20 21 22 23 24 25 26 27 28 29 30 31 32 33 34 35 36 37 38 39 40 41 42 43 44 45 46 47 48 49 50
000
ASUS45 KABQ 300101
RWRNM
WEATHER ROUNDUP FOR NEW MEXICO
NATIONAL WEATHER SERVICE ALBUQUERQUE NM
600 PM MST THU JAN 29 2015

NOTE: "FAIR" MEANS FEW OR NO CLOUDS BELOW 12,000 FEET AGL WITH NO
       SIGNIFICANT WEATHER OR OBSTRUCTIONS TO VISION.

      THIS PRODUCT IS RELEASED AS TWO VERSIONS.  ONE VERSION NEAR
      THE TOP OF THE HOUR CONTAINING PRELIMINARY DATA FROM ALBUQUERQUE
      AND OTHER STATIONS.  A FINAL VERSION WITH ADDITIONAL DATA IS
      ISSUED ABOUT 10 MINUTES AFTER THE HOUR.

NMZ501-503-504-510>518-300200-
NORTHWEST PLATEAU/NORTHCENTRAL MOUNTAINS

CITY           SKY/WX    TMP DP  RH WIND       PRES   REMARKS
FARMINGTON     CLOUDY    49  28  44 E8        30.29S
SANTA FE       CLOUDY    41  23  48 SE15G22   30.41R
TAOS           CLOUDY    39  27  60 S8        30.42R WCI  34

$$
NMZ402-403-502-505>509-300200-
WESTCENTRAL MOUNTAINS/SOUTHWEST MOUNTAINS

CITY           SKY/WX    TMP DP  RH WIND       PRES   REMARKS
GALLUP         CLOUDY    47  28  47 E14       30.26S
SILVER CITY    CLOUDY    54  32  43 E14       30.29S

$$
NMZ407-409-411-412-300200-
SOUTHERN DESERTS

CITY           SKY/WX    TMP DP  RH WIND       PRES   REMARKS
DEMING         CLOUDY    54  32  43 E17       30.27R
HOLLOMAN AFB   CLOUDY    54  38  54 NE3       30.29S
ALAMOGORDO     CLOUDY    54  34  47 NE3       30.31F
T OR C         CLOUDY    52  31  44 N13       30.30R

$$
NMZ519>523-300200-
CENTRAL VALLEYS/CENTRAL HIGHLANDS

CITY           SKY/WX    TMP DP  RH WIND       PRES   REMARKS
ALBUQUERQUE    CLOUDY    46  22  38 E22G31    30.38R
DOUBLE EAGLE   CLOUDY    43  21  42 E17G29    30.39R
MORIARTY ARPT  FAIR      39  19  45 SE10      30.46S WCI  32
CLINES CORNERS CLOUDY    34  18  52 E21       30.41F WCI  22
BELEN          MOCLDY    47  25  42 S5        30.36R
SOCORRO        NOT AVBL

$$
NMZ524>526-539-540-300200-
SOUTHCENTRAL MOUNTAINS

CITY           SKY/WX    TMP DP  RH WIND       PRES   REMARKS
RUIDOSO        NOT AVBL

$$
NMZ527>531-300200-
NORTHEAST HIGHLANDS/NORTHEAST PLAINS

CITY           SKY/WX    TMP DP  RH WIND       PRES   REMARKS
LAS VEGAS      CLOUDY    35  22  58 SE6       30.48S WCI  30
RATON          CLOUDY    38  27  64 SW6       30.45R WCI  33
CLAYTON        CLOUDY    42  25  50 NE5       30.47R

$$
NMZ532>537-300200-
EASTCENTRAL PLAINS

CITY           SKY/WX    TMP DP  RH WIND       PRES   REMARKS
TUCUMCARI      CLOUDY    45  28  51 CALM      30.47S
CANNON AFB     CLOUDY    42  26  53 E5        30.47S
CLOVIS AIRPORT CLOUDY    43  27  52 NE5       30.48R

$$
NMZ028-029-538-300200-
SOUTHEAST PLAINS

CITY           SKY/WX    TMP DP  RH WIND       PRES   REMARKS
ROSWELL        CLOUDY    51  27  39 NE7       30.44R
ARTESIA        CLOUDY    52  30  43 NE6       30.44F
CARLSBAD       CLOUDY    53  31  42 NE5       30.42R
HOBBS          MOCLDY    50  23  34 NE12      30.44R


$$



USA.gov is the U.S. government's official web portal to all federal, state and local government web resources and services.